Flag for Nicaragua Weather past 2 weeks in Masaya, Nicaragua

Now
88 °F

Passing clouds.


Feels Like: 93 °F
Forecast: 74 / 87 °F
Wind: 9 mph from East

Location: Managua A. C. Sandino

Current Time: Aug 1, 2014 at 8:40:10 PM

Latest Report: Aug 1, 2014 at 8:00 PM


Visibility: N/A

Pressure: 29.80 "Hg

Humidity: 55%

Dew point: 70 °F

Location of MasayaLocation

Historic Weather in Masaya — Graph

°F

Masaya temperature yesterday

Maximum temperature yesterday: 97 °F (at 3:00 PM)
Minimum temperature yesterday: 77 °F (at 6:00 AM)
Average temperature yesterday: 86 °F

Past Weeks' High & Low Weather Summary

 TemperatureHumidityPressure
High97 °F (Jul 31, 3:00 PM)94% (Jul 28, 4:00 PM)29.95 "Hg (Jul 28, 4:00 PM)
Low75 °F (Jul 22, 5:00 AM)39% (Jul 20, 2:00 PM)29.74 "Hg (Jul 23, 3:00 PM)
Average85 °F66%29.85 "Hg
* Reported Jul 17 6:45 PM — Aug 1 6:00 PM, Masaya, Weather by CustomWeather, © 2014

Note: Actual official high and low records may vary slightly from our data, if they occured in-between our weather recording intervals... More about our weather records

Advertising

Masaya weather history for previous 24 hours

 ConditionsComfort  
Time TempWeatherWind HumidityBarometerVisibility
6:00 PM
Aug 1
91 °FScattered clouds.9 mph49%29.77 "HgN/A
5:00 PM91 °FScattered clouds.14 mph52%29.77 "HgN/A
4:00 PM93 °FScattered clouds.16 mph47%29.74 "HgN/A
3:00 PM95 °FScattered clouds.16 mph44%29.77 "HgN/A
2:00 PM95 °FScattered clouds.18 mph47%29.77 "HgN/A
1:00 PM93 °FScattered clouds.14 mph47%29.80 "HgN/A
12:00 PM93 °FScattered clouds.12 mph47%29.83 "HgN/A
11:00 AM90 °FScattered clouds.18 mph52%29.83 "HgN/A
10:00 AM88 °FScattered clouds.14 mph62%29.86 "HgN/A
9:00 AM86 °FPassing clouds.16 mph66%29.86 "HgN/A
8:00 AM82 °FScattered clouds.12 mph79%29.89 "HgN/A
7:00 AM79 °FScattered clouds.7 mph79%29.89 "HgN/A
6:00 AM75 °FPassing clouds.No wind78%29.86 "HgN/A
5:00 AM75 °FPassing clouds.No wind89%29.83 "HgN/A
4:00 AM77 °FPassing clouds.No wind83%29.83 "HgN/A
3:00 AM77 °FPassing clouds.No wind83%29.83 "HgN/A
1:00 AM79 °FPassing clouds.No wind84%29.86 "HgN/A
12:00 AM79 °FPassing clouds.No wind84%29.86 "HgN/A
11:00 PM
Jul 31
81 °FPassing clouds.5 mph74%29.86 "HgN/A
10:00 PM81 °FPassing clouds.5 mph74%29.86 "HgN/A
9:00 PM84 °FPassing clouds.7 mph66%29.83 "HgN/A
8:00 PM84 °FPassing clouds.7 mph66%29.83 "HgN/A
Weather by CustomWeather, © 2014

See weather overviewHow to use our weather pages